Location: La Trinit�
(48.1620°N, 3.4512°W)
Time: 04:03:44
(UTC+00:00)

Cosmos 1959 Rocket - Pass Details

Date: 08 May 2021
Orbit: 946 x 998 km, 83.0° (Epoch: 13 June)

Event Time Altitude Azimuth Distance (km) Brightness Sun altitude
Rises 23:32:31 0° 350° (N) 3,698 9.0 -23.9°
Reaches altitude 10° 23:35:03 10° 350° (N) 2,738 7.9 -24.0°
Maximum altitude 23:41:20 87° 265° (W) 976 4.4 -24.2°
Enters shadow 23:42:53 54° 178° (S) 1,160 4.5 -24.2°
